Pueblo, CO

11:16 PM MDT on May 27, 2018 (GMT -0600)
Pueblo Memorial

Weather History for KPUB - March, 2014

Change the Weather History Date:

Sunday, March 16, 2014

  Actual Average Record
Temperature  
Mean Temperature 43 °F 42 °F  
Max Temperature 62 °F 59 °F 85 °F (2015)
Min Temperature 23 °F 26 °F 4 °F (1906)
Degree Days  
Heating Degree Days 22 22  
Month to date heating degree days 376 394  
Since 1 July heating degree days 4581 4697  
Cooling Degree Days 0 0  
Month to date cooling degree days 0 0  
Year to date cooling degree days 0 0  
Moisture  
Dew Point 20 °F    
Average Humidity 50    
Maximum Humidity 81    
Minimum Humidity 19    
Precipitation  
Precipitation 0.00 in 0.03 in 0.54 in (1892)
Month to date precipitation 0.64 0.42  
Year to date precipitation 1.37 1.07  
Snow  
Snow 0.00 in 0.20 in 7.20 in (1892)
Month to date snowfall 1.0 2.6  
Since 1 July snowfall 19.6 24.4  
Snow Depth 0.00 in    
Sea Level Pressure  
Sea Level Pressure 30.17 in    
Wind  
Wind Speed 6 mph (NNE)    
Max Wind Speed 24 mph    
Max Gust Speed 29 mph    
Visibility 10 miles    
Events      
T = Trace of Precipitation, MM = Missing Value Source: NWS Daily Summary

Daily Weather History Graph

Daily Weather History Graph

Search for Another Location

Airport or City:

Astronomy

Mar. 16, 2014 Rise Set
Actual Time 7:07 AM MDT 7:06 PM MDT
Civil Twilight 6:41 AM MDT 7:32 PM MDT
Nautical Twilight 6:10 AM MDT 8:03 PM MDT
Astronomical Twilight 5:39 AM MDT 8:34 PM MDT
Moon 7:25 PM MDT (3/16) 6:52 AM MDT (3/16)
Length of Visible Light 12h 51m
Length of Day
11h 58m
Full, 100% of the Moon is Illuminated
Mar 16
Full
Mar 23
Last Quarter
Mar 30
New
Apr 7
First Quarter
Apr 15
Full

Hourly Weather History & Observations

Time (MDT) Temp. Windchill Dew Point Humidity Pressure Visibility Wind Dir Wind Speed Gust Speed Precip Events Conditions
12:53 AM 36.0 °F 26.7 °F 21.9 °F 57% 30.29 in 10.0 mi North 15.0 mph - N/A   Clear
1:53 AM 36.0 °F 24.2 °F 23.0 °F 59% 30.28 in 10.0 mi NNE 24.2 mph - N/A   Clear
2:53 AM 35.1 °F 28.6 °F 23.0 °F 61% 30.31 in 10.0 mi NNW 8.1 mph - N/A   Clear
3:53 AM 34.0 °F - 21.9 °F 61% 30.29 in 10.0 mi Calm Calm - N/A   Clear
4:53 AM 27.0 °F 19.5 °F 19.9 °F 75% 30.31 in 10.0 mi WSW 6.9 mph - N/A   Clear
5:53 AM 26.1 °F 20.5 °F 19.9 °F 78% 30.30 in 10.0 mi West 4.6 mph - N/A   Clear
6:53 AM 23.0 °F 15.8 °F 17.1 °F 78% 30.31 in 10.0 mi West 5.8 mph - N/A   Clear
7:53 AM 28.0 °F 24.2 °F 19.9 °F 72% 30.30 in 10.0 mi NW 3.5 mph - N/A   Clear
8:53 AM 34.0 °F - 21.9 °F 61% 30.32 in 10.0 mi Calm Calm - N/A   Clear
9:53 AM 37.0 °F - 23.0 °F 57% 30.32 in 10.0 mi Calm Calm - N/A   Clear
10:53 AM 41.0 °F - 24.1 °F 51% 30.29 in 10.0 mi North - - N/A   Clear
11:53 AM 46.0 °F 44.8 °F 21.0 °F 37% 30.24 in 10.0 mi Variable 3.5 mph - N/A   Clear
12:53 PM 51.1 °F - 19.0 °F 28% 30.18 in 10.0 mi Variable 6.9 mph - N/A   Clear
1:53 PM 55.0 °F - 16.0 °F 22% 30.12 in 10.0 mi Variable 4.6 mph - N/A   Clear
2:53 PM 57.9 °F - 17.1 °F 20% 30.06 in 10.0 mi Variable 3.5 mph - N/A   Clear
3:53 PM 60.1 °F - 17.1 °F 19% 30.04 in 10.0 mi NE 4.6 mph - N/A   Clear
4:53 PM 60.1 °F - 17.1 °F 19% 30.03 in 10.0 mi Calm Calm - N/A   Clear
5:53 PM 57.9 °F - 18.0 °F 21% 30.02 in 10.0 mi SE 16.1 mph - N/A   Clear
6:53 PM 54.0 °F - 19.0 °F 25% 30.05 in 10.0 mi SE 10.4 mph - N/A   Clear
7:53 PM 51.1 °F - 19.0 °F 28% 30.03 in 10.0 mi ESE 6.9 mph - N/A   Clear
8:53 PM 48.0 °F - 19.0 °F 32% 30.03 in 10.0 mi East 3.5 mph - N/A   Clear
9:53 PM 42.1 °F 39.2 °F 19.0 °F 40% 30.04 in 10.0 mi ENE 4.6 mph - N/A   Clear
10:53 PM 43.0 °F 39.5 °F 19.9 °F 40% 30.01 in 10.0 mi East 5.8 mph - N/A   Clear
11:53 PM 37.9 °F 35.5 °F 19.9 °F 48% 29.99 in 10.0 mi West 3.5 mph - N/A   Clear